Regional Weather Roundup
Issued by NWS Albany, NY

Home | Current Version | Previous Version | Text Only | Print | Product List | Glossary On
Versions: 1 2 3 4 5 6 7 8 9 10 11 12 13 14 15 16 17 18 19 20 21 22 23 24 25 26 27 28 29 30 31 32 33 34 35 36 37 38 39 40 41 42 43 44 45 46 47 48 49
000
ASUS41 KALY 242210
RWRALY

NEW YORK STATE HOURLY WEATHER ROUNDUP
NATIONAL WEATHER SERVICE ALBANY NY
500 PM EST SAT JAN 24 2015

NOTE: "FAIR" INDICATES FEW OR NO CLOUDS BELOW 12,000 FEET WITH NO
SIGNIFICANT WEATHER AND/OR NO OBSTRUCTIONS TO VISIBILITY.

NYZ032-033-038>043-046>054-057>066-NYZ062>081-242300-
EAST


CITY           SKY/WX    TMP DP  RH WIND       PRES   REMARKS
ALBANY         MOCLDY    33  25  72 N7        29.31F WCI  27
GLENS FALLS    PTCLDY    30  22  72 SE3       29.30F HAZE
POUGHKEEPSIE   CLOUDY    34  30  85 W6        29.31R FOG     WCI  29
NEWBURGH       MOCLDY    34  32  93 NW5       29.31R FOG     WCI  30
MONTGOMERY     CLOUDY    33  32  96 SW5       29.29R FOG     WCI  29
WHITE PLAINS   LGT SNOW  34  31  88 NW13      29.28R FOG     WCI  25
ISLIP          LGT RAIN  35  33  92 NW15      29.26R FOG     WCI  25
NEW YORK CITY  LGT RAIN  37  32  82 NW14G21   29.32R WCI  28
CENTRAL PARK   CLOUDY    37  31  78 VRB3      29.34R
$$

NYZ005>009-017-018-044>046-055-056-242300-
CENTRAL


CITY           SKY/WX    TMP DP  RH WIND       PRES   REMARKS
FULTON         MIX PCPN  29  22  75 W9        29.45F WCI  20
SYRACUSE       CLOUDY    26  22  84 W10       29.46S WCI  16
ROME           CLOUDY    29  23  78 W12       29.44S WCI  19
ELMIRA         CLOUDY    32  22  66 W10G20    29.45R WCI  24
BINGHAMTON     CLOUDY    26  21  81 NW14      29.37R HAZE    WCI  14
MONTICELLO     MOCLDY    34  27  75 NW14G22   29.30R WCI  24
$$

NYZ026>034-041>043-242300-
NORTH


CITY           SKY/WX    TMP DP  RH WIND       PRES   REMARKS
WATERTOWN      FRZ RAIN  30  27  88 SW9       29.43S FOG     WCI  22
FORT DRUM      NOT AVBL
MASSENA        CLOUDY    30  26  85 SW12      29.39F WCI  20
SARANAC LAKE   CLOUDY    28  21  75 W7        29.28F WCI  21
PLATTSBURGH    PTCLDY    30  21  69 NE5       29.33F WCI  25
$$

NYZ001>004-010>016-019>021-242300-
WEST


CITY           SKY/WX    TMP DP  RH WIND       PRES   REMARKS
NIAGARA FALLS  FRZ DRZL  29  27  92 W14       29.48S FOG     WCI  18
BUFFALO        LGT SNOW  30  27  88 W20G31    29.48R FOG     WCI  17
DUNKIRK        FRZ RAIN  29  27  92 SW17G26   29.52S FOG     WCI  17
JAMESTOWN      CLOUDY    25  21  86 SW10      29.48R WCI  15
WELLSVILLE     CLOUDY    23  20  88 W12       29.43S WCI  12
ROCHESTER      FLURRIES  30  26  85 W14       29.46F WCI  19
PENN YAN       CLOUDY    29  22  75 W8        29.44F WCI  21
$$

             KEY
       WCI = WIND CHILL INDEX
       VSB = VISIBILITY
       HX  = HEAT INDEX
$$



USA.gov is the U.S. government's official web portal to all federal, state and local government web resources and services.